Wind_Speed
31 30 30 29 29 28 27 28 28 30 31 31 32 31 31 30 30 30 31 32 31 31 30 30 28 27 27 27 26 26 25 24 24 23 22 22 22 21 20 20 20 20 20 21 21 22 22 22 22 22 22 23 24 26 27 28 29 29 28 26 24 24 23
32 31 31 31 31 31 30 30 30 31 32 34 35 35 34 34 33 32 32 32 33 32 32 31 30 30 29 29 29 28 28 27 26 25 25 25 25 24 23 23 23 22 22 22 23 24 24 24 24 23 23 24 26 27 27 28 28 29 28 26 24 24 25
32 32 32 32 33 33 33 33 33 34 34 35 36 37 37 37 36 35 34 34 34 33 33 32 32 32 31 31 31 30 29 29 28 27 27 27 27 27 26 26 25 24 23 23 23 24 25 26 27 26 25 26 27 28 28 27 27 27 27 26 27 28 29
32 33 33 34 34 34 35 35 35 35 36 36 37 37 38 38 37 37 37 36 35 34 34 34 33 33 33 33 32 31 31 30 30 30 29 28 28 29 29 28 28 27 26 26 25 25 26 28 29 29 27 27 27 28 27 26 26 27 27 28 29 30 31
31 33 34 35 35 36 36 36 36 37 37 37 37 37 38 38 38 38 38 38 37 36 36 35 35 35 34 34 34 34 33 33 33 33 32 31 30 30 30 31 31 31 30 30 29 28 28 29 30 30 29 28 27 28 28 28 28 29 30 30 30 31 32
31 32 33 34 35 36 37 37 37 38 38 38 38 38 39 39 39 39 39 39 39 39 38 38 37 37 37 37 37 36 36 36 36 36 35 34 33 33 32 33 33 33 33 33 32 31 30 30 30 31 31 30 30 31 32 32 32 32 32 33 33 33 34
31 32 33 34 35 36 37 37 37 38 38 38 39 40 40 40 40 40 40 40 40 41 41 41 41 41 41 40 40 40 40 39 39 38 38 38 37 37 36 36 35 35 35 35 34 33 33 32 32 32 33 33 33 34 35 36 35 35 35 36 36 36 37
29 31 32 33 35 36 36 37 37 37 37 38 40 41 41 41 41 41 41 41 42 42 43 43 43 44 44 44 44 43 43 43 42 41 41 41 40 40 40 40 39 39 38 38 37 37 36 36 35 35 35 35 36 36 37 38 39 38 38 38 39 39 40
26 28 29 31 33 35 36 36 35 35 36 38 40 41 42 41 42 42 42 42 43 44 45 45 45 45 46 46 46 45 45 45 44 43 43 43 43 43 44 44 44 43 43 42 41 41 40 40 40 39 39 39 40 40 40 41 41 41 40 40 41 41 42
25 26 27 29 30 31 32 33 34 35 36 37 38 40 41 41 41 42 42 42 42 43 44 45 46 47 47 47 48 48 47 47 46 46 46 46 46 47 47 47 47 47 46 46 45 45 45 45 44 44 44 45 45 45 46 45 45 45 45 45 45 45 45
25 26 27 28 29 29 29 31 33 34 36 36 37 39 40 42 43 43 43 42 42 41 41 42 43 44 46 48 49 50 50 50 49 48 48 49 50 50 50 50 50 49 50 50 50 50 50 50 49 49 48 49 51 51 52 52 51 51 51 51 51 50 50
24 26 27 28 28 28 28 30 31 31 33 35 37 39 40 41 42 43 44 44 44 43 42 41 42 43 44 46 47 49 50 51 50 50 50 52 53 53 53 53 53 53 54 54 54 55 55 54 54 54 54 54 55 56 57 58 58 56 55 56 56 57 57
22 24 25 26 26 27 27 28 29 29 31 34 36 38 39 40 41 41 42 42 43 44 45 45 46 46 47 47 47 47 48 49 49 50 51 52 53 53 54 54 54 55 57 58 58 59 59 59 59 58 58 58 59 60 60 61 62 61 60 59 60 61 62
18 20 22 23 24 25 27 28 29 29 31 33 35 37 38 39 40 40 40 40 41 42 44 46 48 49 50 50 49 49 48 49 49 50 52 54 55 56 56 57 56 57 58 59 60 61 62 62 63 62 62 62 62 63 64 64 65 65 65 64 64 65 66
11 13 15 17 19 22 25 28 30 31 32 34 35 36 38 39 40 40 39 39 39 41 42 44 45 47 49 49 50 50 50 51 51 51 52 53 54 56 57 59 60 59 60 61 61 62 63 64 65 65 65 65 65 66 67 67 68 69 70 70 69 69 70
5 6 7 9 13 17 20 23 26 29 33 35 37 38 39 40 40 40 40 41 42 43 44 44 44 45 45 46 48 49 50 51 51 50 49 50 52 53 54 59 62 61 61 62 62 63 64 65 66 66 67 67 68 68 69 70 71 72 74 75 75 75 75
4 5 5 4 8 12 15 17 20 23 26 31 34 38 40 41 42 42 42 42 43 44 43 42 42 43 44 44 45 45 46 48 49 50 50 51 53 54 55 59 62 61 61 62 62 64 65 66 67 68 69 69 69 70 71 72 73 74 76 78 79 79 79
5 5 5 5 6 8 11 13 15 17 20 23 27 31 35 39 42 44 44 44 43 42 42 43 44 45 46 47 46 46 47 49 50 51 52 53 54 55 55 58 60 60 61 62 62 63 64 65 67 68 69 70 71 71 71 72 72 73 73 75 76 77 77
9 6 5 6 8 10 12 15 17 17 18 19 22 25 28 31 36 40 43 45 45 44 44 45 47 48 49 49 49 49 50 52 52 51 51 51 51 52 53 54 55 55 56 58 58 58 58 59 61 63 65 65 65 65 65 64 64 65 66 68 69 71 73
13 10 8 7 8 11 13 16 18 20 20 20 21 23 24 25 28 32 37 40 43 44 45 46 48 48 48 48 49 48 47 46 47 48 48 47 46 46 46 47 48 49 50 51 52 52 52 52 53 55 57 58 58 58 58 57 57 58 60 62 64 66 69
15 14 11 10 10 12 14 16 18 20 22 22 22 23 23 23 24 25 29 33 36 39 42 45 47 46 45 47 48 47 44 41 40 40 41 43 44 44 43 43 45 46 46 47 48 48 47 47 48 50 51 52 52 53 54 55 55 56 58 60 62 64 67
18 17 15 13 13 14 16 18 20 21 22 24 25 25 25 25 25 24 25 27 29 31 34 38 41 41 43 46 48 48 48 47 45 42 39 38 40 42 43 45 45 45 45 46 45 43 43 47 49 51 51 53 54 55 56 57 58 58 59 60 62 63 65
21 20 19 17 16 17 18 20 22 24 24 26 27 27 27 26 26 26 25 25 26 27 29 33 36 39 42 46 48 50 51 52 53 52 49 47 46 46 47 48 48 49 50 50 48 48 51 54 56 56 57 58 58 59 59 59 59 58 58 58 58 59 60
22 22 22 21 20 20 21 22 24 26 27 28 29 30 30 28 27 27 26 26 25 26 27 30 34 38 43 46 49 51 53 54 54 55 55 55 54 54 54 54 55 57 58 57 56 58 60 61 60 60 61 61 61 60 59 57 56 56 55 53 52 53 54
23 22 22 23 24 24 23 24 26 28 28 29 31 33 33 32 31 30 28 27 26 25 26 28 31 37 43 47 50 52 54 55 56 56 57 58 58 58 59 59 61 62 62 61 62 63 64 64 63 64 64 63 62 60 57 55 54 53 51 49 49 48 49
24 23 23 24 26 26 26 26 27 29 30 30 32 35 36 35 35 34 32 30 28 26 24 26 28 32 38 44 49 53 55 56 57 58 59 59 60 61 62 63 64 64 64 64 65 65 66 66 66 65 64 63 61 58 54 52 51 49 47 45 44 43 43
26 25 24 25 26 28 29 29 29 31 32 32 33 36 38 38 37 37 36 35 32 29 26 23 24 28 32 37 42 47 51 54 57 59 61 62 63 64 65 66 66 67 67 66 66 67 67 67 66 65 64 62 59 55 52 50 47 46 43 41 41 41 41
27 27 26 26 27 28 30 32 31 32 33 34 34 37 39 40 40 39 38 37 36 34 31 26 23 23 26 30 35 39 42 45 50 54 56 58 60 62 64 65 66 66 66 65 66 66 65 65 65 64 63 60 55 52 50 47 44 43 42 40 40 41 41
29 30 29 28 28 29 30 33 33 33 34 36 36 38 40 41 41 42 41 40 38 37 35 33 28 24 22 23 27 32 36 40 44 48 50 52 54 55 57 58 59 60 61 62 63 63 63 64 64 62 59 55 52 51 49 44 42 42 41 41 40 40 41
32 32 31 30 30 30 30 32 33 33 35 37 38 39 41 42 43 43 44 44 42 39 39 38 36 32 27 24 23 26 30 34 39 44 47 49 50 51 51 51 52 53 55 57 58 59 60 61 59 56 53 52 51 52 49 45 44 44 43 43 43 42 43
34 33 33 34 34 33 33 32 32 33 35 38 40 41 43 44 44 45 46 46 45 43 41 41 41 40 37 33 30 28 28 29 32 35 39 42 45 47 48 49 49 49 50 51 52 52 53 54 53 51 51 51 52 52 50 47 46 46 46 46 47 46 46
37 36 36 37 37 37 37 36 34 34 36 38 41 43 44 45 46 46 47 48 47 46 45 44 44 44 43 41 39 36 34 33 32 33 34 36 39 42 45 46 46 46 47 48 48 48 50 51 51 51 51 52 53 52 51 49 49 49 50 50 51 49 47
40 39 39 39 39 40 41 41 40 39 37 37 40 44 46 46 47 48 48 49 49 49 48 48 47 46 46 46 45 43 41 39 38 37 36 35 35 38 41 42 43 44 44 46 46 47 48 50 51 52 53 53 53 53 52 51 50 50 50 50 50 49 49
43 42 40 40 41 43 44 45 45 45 42 39 40 45 48 48 48 49 50 50 50 50 50 51 50 49 47 46 47 46 45 44 43 42 41 39 37 37 37 38 40 41 42 43 44 45 47 49 50 51 52 52 53 54 53 51 49 48 48 48 49 49 50
45 44 42 42 43 45 46 47 47 47 46 42 41 44 48 49 49 51 51 51 52 52 52 53 53 52 50 48 47 47 47 47 46 46 44 43 41 40 38 37 38 39 40 41 43 44 45 47 49 50 51 52 52 52 50 49 48 48 48 48 48 48 47
48 47 46 44 45 46 47 47 47 48 48 46 43 44 47 49 51 52 53 53 53 53 53 54 55 55 53 51 49 49 48 48 48 48 48 46 44 42 40 39 37 37 38 40 41 42 43 45 47 48 49 50 51 50 49 48 49 49 48 46 44 43 42
48 48 48 48 48 49 49 49 49 50 50 49 46 44 46 48 51 53 54 54 54 54 54 55 56 56 56 54 53 51 50 49 48 48 49 49 48 45 42 40 39 39 39 40 40 39 40 42 45 47 48 50 50 49 48 48 48 47 44 41 41 42 41
Wind_Direction
238 242 243 244 246 248 250 250 250 248 244 241 241 243 245 247 248 248 248 246 246 246 247 248 249 249 251 252 253 255 256 258 259 260 261 262 263 262 260 258 257 257 256 254 253 253 253 255 257 259 260 261 261 262 263 265 266 266 265 266 266 263 263
235 238 240 242 244 245 246 247 249 250 249 247 244 243 244 245 246 247 248 247 247 247 247 247 248 248 249 252 253 255 256 258 259 260 262 263 265 266 266 266 266 265 263 259 256 253 251 252 254 258 261 262 262 263 265 267 270 271 269 268 265 264 266
235 235 237 240 242 243 244 244 246 248 249 249 248 246 245 245 246 246 247 248 248 248 249 248 248 248 249 252 254 255 257 258 259 259 260 261 263 264 265 267 268 267 266 265 264 260 255 252 252 257 261 262 262 261 263 266 269 271 270 268 266 266 269
236 235 235 237 239 241 242 243 244 245 247 248 249 249 248 248 248 248 248 249 250 250 251 251 251 252 252 253 255 256 256 258 259 260 259 259 260 262 263 264 265 265 266 268 270 268 263 257 255 257 260 261 260 260 261 265 268 269 269 268 267 267 269
237 237 238 238 238 239 241 242 244 245 246 247 248 249 250 250 251 251 251 251 252 253 253 254 256 256 257 257 258 258 258 258 259 260 261 261 261 261 261 261 262 263 264 266 270 271 269 264 259 258 258 257 257 260 263 266 269 270 269 268 268 268 269
239 239 239 240 241 242 243 244 245 247 248 249 249 249 250 251 252 252 253 253 254 255 257 258 259 259 260 260 260 261 261 261 261 262 262 263 262 262 261 261 261 262 263 265 267 268 268 266 262 259 257 256 256 260 265 268 269 270 271 272 271 271 270
244 243 242 242 242 243 244 246 247 248 250 251 252 252 251 252 252 253 254 254 254 255 256 258 259 260 261 262 262 262 263 263 264 264 264 264 264 264 263 262 261 262 263 264 264 265 264 263 261 259 259 259 258 261 266 268 269 271 272 274 273 273 272
248 248 247 246 246 246 246 247 248 251 253 254 254 255 255 255 255 256 256 256 256 256 257 257 258 259 260 261 262 263 263 264 264 264 264 264 264 264 264 263 262 261 260 260 260 261 261 260 260 259 260 262 263 264 267 270 272 273 274 274 273 273 272
254 253 253 252 251 251 250 251 252 254 256 256 256 256 256 256 257 257 258 259 259 259 258 259 259 259 258 258 259 260 261 262 262 262 262 263 263 263 263 263 263 262 261 260 259 259 259 259 259 259 260 263 265 266 267 269 271 273 273 272 271 271 271
256 257 258 258 258 258 256 255 253 253 254 256 258 257 257 257 257 258 259 260 260 260 260 259 259 259 259 258 258 258 258 258 258 258 259 260 261 261 262 263 263 264 264 263 262 262 261 260 259 259 259 261 263 264 265 266 267 269 270 270 270 270 270
254 255 257 259 261 263 263 260 256 254 254 257 259 261 260 259 258 259 260 260 261 262 262 260 259 259 258 258 258 257 257 257 257 257 257 257 258 259 261 262 263 264 265 265 264 264 263 262 262 261 260 261 263 264 266 266 266 267 269 271 271 271 272
257 256 257 257 259 261 262 261 261 260 259 258 259 261 262 262 262 262 262 262 262 262 262 261 260 260 259 259 259 259 259 259 259 259 260 260 260 261 262 262 263 264 264 264 264 264 264 264 264 264 263 263 263 265 266 267 267 267 268 270 271 272 273
264 263 262 261 261 262 261 261 260 259 258 258 259 260 262 264 265 265 265 265 264 264 263 262 262 261 261 261 261 262 262 262 263 263 264 264 265 265 265 265 265 265 265 264 264 265 265 265 266 266 265 265 265 266 266 267 268 268 268 269 270 272 273
271 270 269 269 268 266 263 262 260 259 258 258 258 258 260 262 264 265 266 266 266 266 265 264 263 263 262 262 262 263 264 264 264 265 266 267 267 268 268 267 267 266 265 265 265 265 265 265 265 265 265 266 266 266 266 266 268 269 269 269 270 271 273
280 277 276 275 269 264 261 261 260 260 260 260 259 258 258 259 261 263 264 265 265 265 265 265 265 266 266 266 266 265 265 265 265 266 266 266 266 266 266 265 264 264 264 265 265 266 266 266 266 265 265 266 266 266 266 266 267 268 269 269 269 270 271
318 308 294 273 263 266 269 266 264 262 261 261 261 260 259 259 259 259 260 261 262 262 264 265 266 266 267 267 267 267 266 266 264 263 261 261 260 261 261 262 262 262 263 265 267 267 267 267 267 266 266 266 266 266 267 267 267 268 269 269 269 269 270
349 358 349 298 272 280 285 282 278 273 268 265 263 262 262 261 260 259 258 258 258 260 261 262 263 263 262 263 265 266 265 263 260 257 256 257 258 260 261 263 265 265 265 266 267 268 268 268 267 267 266 266 266 267 267 268 268 268 269 270 270 270 270
314 346 5 357 333 321 315 312 308 300 290 281 273 268 265 263 262 261 260 258 258 257 259 260 261 261 262 263 264 263 262 261 259 259 259 260 261 262 263 264 266 268 268 267 267 267 267 267 267 266 266 266 267 267 267 267 268 268 269 270 271 271 271
295 308 335 354 355 352 348 346 344 336 324 310 297 286 276 269 265 263 262 261 260 259 259 260 261 261 262 263 263 262 262 263 263 263 263 263 263 264 264 265 267 268 270 270 269 268 267 268 268 268 268 268 269 268 269 269 269 270 271 271 271 272 272
294 296 307 325 340 346 349 351 352 351 346 335 322 310 298 286 276 270 266 263 261 261 261 261 261 262 262 261 261 261 261 263 265 264 263 263 263 264 265 267 268 269 270 271 271 270 270 270 270 270 270 270 270 270 270 271 272 272 273 274 274 273 273
296 295 299 309 319 329 336 341 344 348 349 346 340 333 323 312 298 285 275 268 264 262 261 261 261 261 259 259 258 257 256 257 261 264 264 263 263 264 264 266 268 270 272 275 276 277 276 276 277 277 277 276 276 275 275 275 277 278 278 278 277 276 274
296 297 299 304 311 318 325 330 334 337 341 344 345 344 340 332 322 309 294 281 271 266 262 261 260 257 256 257 258 257 256 256 257 259 261 261 261 261 261 264 266 270 274 276 277 277 279 281 282 282 282 282 282 282 282 283 284 284 282 281 278 275 273
294 297 299 303 308 314 319 324 328 330 332 336 339 341 343 342 337 330 318 302 287 276 269 264 260 256 254 255 257 258 259 260 259 258 258 258 259 260 262 264 266 270 274 275 274 275 279 282 284 283 284 285 285 286 287 288 288 287 285 283 278 274 271
288 294 299 303 307 311 315 319 323 324 326 329 333 335 338 341 341 340 335 325 309 293 281 272 266 261 257 256 257 258 259 261 262 263 262 263 263 264 265 268 271 275 277 277 278 279 281 284 286 286 287 289 291 292 293 293 291 290 289 286 281 276 273
281 288 295 301 305 308 312 316 319 319 321 324 328 330 332 335 338 339 340 338 329 314 297 285 274 267 263 262 261 261 261 262 263 265 267 268 269 270 272 274 276 278 279 280 281 281 283 285 286 288 290 293 295 297 297 295 294 294 291 287 284 281 278
277 283 290 297 301 304 308 312 316 316 316 319 323 325 326 329 333 335 337 339 339 334 319 301 287 277 270 268 267 266 266 266 266 267 269 270 272 273 274 275 276 278 279 280 281 281 283 285 287 289 291 294 296 297 296 295 295 294 292 289 286 285 284
276 282 287 292 296 300 304 308 312 312 312 315 318 320 322 324 327 330 333 335 337 340 336 323 305 291 282 276 273 272 271 271 271 271 271 272 273 273 274 275 276 277 278 279 280 281 283 285 287 289 291 293 295 294 293 293 292 291 290 289 289 289 289
276 280 283 287 290 295 299 303 307 308 308 311 314 315 316 319 322 324 327 331 333 336 338 336 325 309 294 285 280 278 277 276 275 274 274 273 273 274 274 274 275 277 278 279 280 282 284 285 287 288 290 291 291 289 290 290 289 287 287 288 290 291 292
277 278 280 283 286 289 293 297 301 303 305 307 310 311 311 314 318 320 322 325 329 332 334 335 333 326 312 298 288 281 277 276 275 275 275 275 275 275 276 276 277 278 279 280 281 282 283 284 285 287 288 288 286 286 288 288 286 285 286 288 291 291 293
276 277 278 281 283 285 287 290 294 299 301 303 305 307 307 310 314 317 318 320 323 328 331 333 333 331 325 317 305 292 283 279 278 277 276 275 276 277 278 279 279 280 280 280 280 281 282 283 284 284 284 284 284 285 287 287 286 288 290 292 294 294 295
274 277 279 281 282 284 285 287 291 295 298 299 301 302 303 306 309 313 314 316 319 323 327 329 332 332 331 327 322 315 306 298 292 287 284 281 279 278 278 279 279 280 281 281 282 282 282 282 282 281 281 281 282 285 287 287 287 290 293 295 296 296 297
272 275 278 279 281 284 285 286 288 291 293 295 297 298 299 301 305 309 311 312 315 318 321 325 328 331 332 331 328 325 322 318 311 305 298 292 286 282 280 280 280 281 282 283 284 284 284 282 281 280 280 281 282 284 286 287 288 290 292 293 295 296 298
266 269 271 274 279 283 285 286 286 287 290 293 293 293 295 298 301 304 307 309 311 314 317 319 322 326 330 332 330 327 325 325 322 317 311 304 296 289 285 283 284 284 285 286 286 286 284 282 281 279 279 280 281 283 285 288 290 292 292 294 295 296 298
263 264 266 270 274 278 281 284 285 285 286 289 289 289 291 294 297 300 303 305 308 311 313 315 317 321 325 329 330 327 325 324 324 322 319 314 308 300 293 288 286 287 288 289 289 287 284 281 279 279 278 279 281 283 286 290 292 294 295 296 297 298 299
260 261 264 267 270 274 277 280 282 283 283 285 285 286 288 290 292 295 298 302 304 307 309 311 312 316 320 324 327 326 324 323 323 323 322 319 315 310 304 297 292 290 290 291 291 289 285 280 278 278 279 280 282 284 288 292 294 295 297 298 300 301 300
258 260 263 267 269 272 275 278 280 281 281 282 282 283 285 287 288 291 294 298 301 303 306 307 308 311 315 319 322 324 323 321 321 322 322 320 318 314 310 305 299 294 292 292 291 288 284 279 277 277 278 280 283 286 290 293 295 296 297 300 304 304 301
262 260 262 266 269 272 274 277 279 280 281 281 281 280 281 283 285 288 290 294 297 300 302 303 304 307 311 314 316 319 321 321 320 320 320 320 319 317 314 310 305 299 294 291 288 285 282 278 276 276 278 281 285 289 292 294 295 296 298 302 305 305 302
Height
10712 10714 10715 10716 10718 10719 10721 10722 10723 10725 10726 10727 10728 10729 10730 10731 10732 10733 10735 10736 10737 10738 10739 10740 10741 10743 10744 10745 10746 10747 10747 10748 10748 10749 10749 10750 10750 10751 10752 10753 10754 10754 10755 10756 10757 10757 10758 10758 10758 10759 10759 10759 10760 10761 10762 10763 10764 10765 10766 10767 10768 10768 10769
10709 10710 10711 10713 10714 10716 10717 10719 10720 10721 10722 10723 10724 10725 10726 10728 10729 10730 10731 10732 10734 10735 10736 10737 10738 10739 10740 10741 10742 10743 10744 10745 10745 10745 10746 10747 10747 10748 10749 10750 10751 10751 10752 10753 10754 10754 10755 10755 10755 10756 10756 10756 10757 10757 10758 10759 10760 10761 10762 10763 10764 10765 10766
10705 10707 10708 10710 10711 10712 10714 10715 10716 10717 10718 10720 10721 10722 10723 10725 10726 10727 10728 10729 10730 10731 10732 10733 10734 10735 10737 10737 10738 10740 10740 10741 10742 10742 10743 10743 10744 10745 10745 10746 10747 10748 10749 10750 10750 10751 10752 10752 10753 10753 10753 10753 10753 10753 10755 10756 10757 10757 10758 10760 10761 10762 10762
10702 10704 10705 10707 10708 10709 10710 10711 10712 10713 10715 10716 10718 10719 10720 10722 10723 10724 10725 10726 10727 10728 10729 10730 10731 10732 10733 10734 10735 10735 10736 10737 10738 10739 10739 10740 10741 10741 10742 10743 10743 10744 10745 10746 10747 10748 10748 10749 10749 10750 10750 10750 10750 10750 10751 10753 10754 10754 10755 10756 10757 10758 10758
10699 10701 10702 10704 10705 10706 10707 10708 10709 10710 10711 10713 10714 10716 10717 10718 10720 10721 10722 10723 10724 10725 10725 10726 10727 10728 10729 10730 10731 10731 10732 10733 10734 10735 10736 10737 10737 10738 10739 10739 10740 10740 10741 10742 10743 10744 10744 10745 10745 10746 10746 10747 10747 10746 10747 10749 10750 10751 10752 10752 10754 10754 10754
10696 10697 10699 10700 10701 10702 10703 10704 10705 10707 10708 10710 10711 10712 10713 10714 10716 10717 10718 10719 10720 10721 10722 10723 10724 10724 10725 10726 10726 10727 10728 10729 10730 10730 10732 10732 10733 10734 10735 10735 10736 10736 10737 10738 10739 10739 10740 10740 10741 10742 10742 10743 10743 10743 10743 10744 10746 10747 10748 10748 10750 10751 10751
10692 10694 10695 10696 10697 10698 10699 10700 10702 10704 10705 10706 10707 10708 10709 10710 10711 10712 10714 10715 10716 10717 10718 10719 10719 10720 10721 10722 10722 10723 10723 10724 10725 10726 10727 10728 10729 10730 10730 10731 10731 10732 10732 10733 10734 10735 10735 10736 10736 10737 10737 10738 10739 10739 10738 10739 10741 10743 10743 10744 10745 10746 10746
10688 10689 10690 10692 10693 10694 10695 10697 10699 10701 10702 10703 10703 10704 10705 10706 10707 10708 10709 10710 10712 10713 10713 10714 10715 10715 10716 10717 10717 10718 10719 10720 10721 10722 10723 10724 10725 10725 10726 10727 10727 10727 10727 10728 10729 10730 10730 10731 10732 10732 10733 10734 10734 10734 10734 10734 10735 10737 10738 10739 10739 10740 10740
10684 10685 10686 10687 10689 10690 10692 10694 10697 10698 10698 10697 10697 10698 10700 10701 10702 10703 10704 10705 10706 10707 10708 10709 10710 10710 10711 10712 10713 10713 10714 10715 10717 10718 10719 10719 10720 10720 10721 10722 10722 10722 10723 10723 10724 10725 10726 10726 10727 10728 10729 10729 10729 10729 10729 10729 10729 10730 10731 10732 10732 10733 10734
10680 10681 10682 10683 10685 10687 10689 10692 10692 10692 10691 10691 10692 10694 10695 10696 10697 10698 10699 10700 10701 10702 10702 10703 10704 10705 10705 10706 10707 10708 10709 10710 10711 10713 10714 10715 10715 10715 10716 10717 10717 10718 10718 10719 10719 10720 10721 10721 10722 10723 10724 10724 10723 10723 10723 10724 10724 10724 10724 10725 10725 10726 10727
10677 10678 10679 10680 10682 10684 10685 10686 10685 10686 10687 10688 10689 10690 10691 10692 10692 10693 10694 10694 10695 10696 10697 10698 10698 10699 10699 10699 10700 10701 10703 10704 10706 10708 10709 10710 10709 10710 10711 10712 10713 10713 10713 10713 10714 10714 10715 10716 10717 10718 10719 10718 10718 10718 10717 10717 10717 10719 10718 10718 10718 10719 10720
10675 10676 10677 10678 10680 10681 10681 10680 10681 10683 10684 10684 10684 10684 10685 10685 10686 10687 10688 10689 10689 10690 10691 10692 10692 10692 10692 10692 10693 10695 10696 10698 10700 10703 10704 10704 10704 10705 10706 10707 10708 10708 10707 10707 10707 10707 10709 10710 10711 10712 10713 10712 10712 10711 10711 10709 10709 10711 10713 10711 10710 10711 10711
10672 10673 10674 10675 10677 10677 10676 10676 10677 10678 10678 10678 10678 10678 10679 10679 10680 10681 10681 10682 10683 10683 10684 10684 10685 10685 10685 10686 10687 10689 10691 10692 10695 10697 10697 10698 10699 10700 10700 10701 10702 10702 10700 10700 10701 10701 10702 10703 10704 10705 10705 10705 10706 10705 10704 10703 10701 10703 10705 10706 10704 10704 10703
10670 10670 10671 10672 10673 10672 10671 10672 10673 10674 10674 10673 10674 10674 10674 10674 10674 10675 10675 10676 10676 10676 10676 10677 10677 10678 10678 10680 10681 10683 10685 10686 10688 10689 10690 10691 10692 10692 10693 10693 10694 10694 10692 10692 10693 10694 10695 10696 10696 10697 10697 10698 10698 10698 10697 10697 10695 10694 10696 10698 10698 10697 10696
10668 10667 10668 10669 10667 10666 10666 10668 10669 10670 10670 10669 10669 10669 10669 10669 10669 10670 10670 10670 10670 10669 10669 10670 10671 10672 10673 10674 10676 10677 10678 10679 10681 10682 10683 10684 10684 10684 10683 10682 10683 10684 10683 10684 10685 10686 10687 10687 10688 10689 10690 10690 10690 10690 10690 10689 10689 10687 10686 10688 10689 10689 10689
10665 10665 10666 10666 10663 10661 10662 10663 10664 10665 10665 10664 10664 10663 10663 10664 10664 10665 10665 10665 10665 10664 10664 10665 10666 10666 10667 10668 10670 10671 10672 10673 10673 10674 10674 10673 10673 10673 10673 10671 10671 10674 10676 10676 10678 10679 10679 10680 10680 10681 10682 10682 10682 10682 10682 10682 10682 10680 10678 10677 10678 10680 10680
10663 10663 10663 10663 10660 10659 10659 10659 10659 10660 10660 10660 10659 10658 10658 10658 10658 10658 10659 10659 10659 10659 10659 10660 10660 10660 10661 10663 10664 10666 10666 10665 10665 10664 10663 10663 10664 10665 10666 10664 10664 10667 10670 10671 10671 10671 10672 10672 10672 10672 10673 10673 10673 10673 10674 10673 10672 10672 10670 10667 10666 10668 10670
10660 10661 10661 10660 10659 10658 10657 10656 10656 10656 10655 10655 10655 10654 10654 10653 10652 10652 10651 10652 10654 10654 10655 10654 10654 10654 10656 10658 10659 10659 10658 10657 10657 10658 10657 10658 10659 10660 10661 10660 10658 10660 10661 10662 10663 10663 10663 10663 10663 10663 10664 10664 10665 10665 10664 10664 10663 10662 10661 10659 10656 10655 10656
10657 10658 10659 10658 10657 10656 10655 10654 10653 10652 10652 10651 10650 10650 10649 10649 10648 10646 10645 10646 10647 10648 10649 10649 10649 10649 10651 10652 10652 10651 10650 10650 10651 10653 10653 10654 10654 10654 10654 10654 10653 10653 10653 10654 10654 10655 10655 10655 10655 10655 10656 10656 10657 10656 10656 10655 10654 10653 10652 10650 10647 10645 10643
10654 10655 10655 10655 10654 10653 10652 10651 10650 10649 10648 10647 10646 10645 10645 10644 10643 10641 10640 10640 10640 10642 10642 10642 10643 10645 10646 10646 10645 10644 10645 10645 10645 10646 10647 10648 10648 10647 10647 10647 10646 10647 10647 10647 10647 10647 10648 10649 10648 10648 10648 10649 10649 10648 10647 10646 10645 10644 10643 10641 10639 10636 10633
10650 10651 10652 10652 10652 10651 10650 10649 10648 10646 10645 10644 10643 10642 10641 10640 10639 10637 10635 10635 10635 10636 10636 10635 10637 10639 10639 10638 10638 10638 10639 10640 10640 10640 10641 10642 10642 10641 10641 10641 10640 10641 10641 10640 10640 10640 10640 10640 10639 10639 10640 10640 10639 10639 10638 10637 10637 10635 10634 10632 10630 10628 10625
10646 10646 10647 10648 10649 10648 10647 10646 10645 10643 10642 10641 10640 10638 10638 10637 10635 10633 10631 10630 10631 10631 10630 10630 10631 10633 10633 10632 10632 10632 10633 10634 10635 10635 10636 10636 10636 10635 10635 10635 10635 10635 10634 10634 10633 10633 10633 10632 10631 10632 10632 10631 10630 10630 10629 10629 10628 10626 10625 10623 10620 10618 10615
10642 10642 10642 10644 10644 10644 10643 10642 10641 10640 10639 10637 10636 10635 10634 10633 10632 10630 10628 10626 10626 10626 10626 10626 10627 10628 10628 10627 10627 10627 10627 10628 10630 10630 10630 10631 10630 10630 10629 10629 10629 10629 10628 10628 10628 10627 10625 10624 10624 10624 10623 10623 10622 10622 10621 10620 10618 10616 10614 10612 10609 10607 10605
10638 10638 10638 10638 10639 10640 10639 10639 10638 10636 10635 10634 10633 10632 10631 10630 10629 10628 10626 10624 10622 10621 10621 10621 10622 10622 10622 10622 10622 10621 10621 10622 10623 10623 10624 10625 10625 10625 10624 10624 10623 10622 10622 10622 10622 10619 10618 10617 10616 10615 10614 10614 10614 10613 10611 10609 10608 10606 10603 10601 10599 10597 10596
10635 10634 10634 10634 10634 10635 10635 10635 10634 10633 10632 10631 10630 10628 10627 10626 10625 10624 10623 10621 10619 10618 10617 10617 10617 10617 10616 10616 10615 10615 10615 10616 10616 10616 10616 10617 10617 10618 10618 10617 10616 10615 10615 10615 10613 10612 10610 10609 10608 10607 10606 10606 10605 10604 10602 10600 10599 10596 10594 10591 10590 10589 10588
10631 10630 10630 10629 10629 10629 10630 10631 10631 10629 10628 10627 10626 10625 10624 10622 10621 10620 10619 10618 10617 10615 10613 10612 10612 10611 10610 10610 10609 10608 10608 10608 10608 10608 10609 10609 10609 10609 10609 10609 10608 10607 10607 10607 10605 10604 10603 10602 10600 10600 10599 10598 10597 10596 10594 10593 10591 10589 10586 10584 10582 10581 10580
10627 10626 10626 10625 10625 10624 10625 10626 10626 10625 10624 10624 10623 10622 10620 10619 10618 10617 10615 10614 10614 10613 10611 10609 10607 10606 10605 10604 10603 10601 10601 10602 10601 10601 10601 10602 10601 10601 10601 10601 10600 10600 10599 10599 10598 10596 10595 10594 10593 10592 10591 10591 10590 10588 10587 10586 10585 10582 10579 10578 10576 10574 10573
10622 10621 10621 10621 10620 10620 10620 10620 10621 10621 10620 10619 10619 10619 10617 10616 10614 10613 10612 10611 10610 10610 10609 10607 10605 10603 10601 10600 10598 10596 10595 10596 10595 10593 10594 10594 10593 10593 10593 10592 10592 10591 10591 10591 10589 10588 10588 10587 10585 10585 10584 10583 10582 10580 10580 10580 10579 10575 10573 10572 10570 10568 10566
10617 10617 10616 10616 10615 10615 10615 10616 10616 10616 10615 10614 10615 10615 10613 10612 10611 10609 10608 10607 10606 10606 10605 10604 10603 10601 10599 10597 10595 10593 10591 10590 10589 10587 10586 10586 10586 10586 10585 10585 10584 10583 10583 10582 10581 10581 10580 10579 10578 10577 10576 10576 10574 10572 10573 10574 10571 10568 10566 10565 10564 10562 10560
10612 10612 10612 10611 10611 10611 10611 10611 10611 10611 10610 10609 10610 10610 10609 10608 10607 10605 10604 10602 10602 10601 10601 10599 10598 10597 10595 10594 10593 10590 10588 10587 10585 10582 10581 10580 10579 10579 10578 10577 10577 10576 10575 10573 10573 10574 10573 10571 10571 10570 10569 10568 10566 10565 10566 10567 10564 10561 10560 10558 10556 10555 10553
10606 10607 10607 10606 10606 10606 10606 10606 10607 10606 10605 10605 10604 10605 10604 10603 10602 10601 10600 10598 10597 10596 10596 10595 10593 10591 10590 10588 10587 10585 10584 10582 10580 10577 10576 10574 10573 10572 10570 10570 10569 10568 10567 10566 10566 10567 10566 10564 10563 10563 10562 10561 10559 10558 10559 10559 10557 10555 10553 10551 10549 10548 10546
10600 10601 10601 10601 10601 10601 10601 10601 10602 10602 10601 10600 10600 10599 10598 10598 10597 10596 10595 10593 10592 10591 10591 10589 10588 10586 10584 10582 10581 10579 10577 10576 10574 10572 10570 10568 10567 10565 10563 10562 10562 10561 10560 10559 10559 10560 10559 10557 10556 10556 10555 10553 10552 10551 10552 10551 10550 10549 10547 10544 10542 10540 10539
10595 10595 10596 10596 10596 10596 10596 10596 10597 10597 10596 10596 10595 10594 10593 10593 10592 10591 10590 10589 10587 10586 10585 10584 10583 10581 10579 10577 10575 10573 10571 10570 10568 10566 10565 10563 10561 10559 10557 10556 10556 10555 10554 10553 10553 10553 10552 10550 10549 10548 10547 10546 10545 10545 10544 10544 10544 10542 10540 10537 10535 10533 10532
10589 10590 10590 10591 10591 10591 10591 10591 10591 10591 10592 10592 10590 10589 10588 10587 10587 10586 10585 10584 10582 10581 10580 10579 10577 10576 10575 10573 10570 10567 10565 10564 10562 10561 10559 10557 10555 10553 10552 10551 10550 10549 10548 10548 10546 10545 10544 10543 10542 10541 10540 10540 10539 10538 10537 10537 10536 10534 10532 10530 10528 10526 10525
10583 10584 10585 10585 10585 10585 10585 10585 10585 10585 10586 10586 10586 10584 10583 10582 10582 10581 10580 10579 10578 10577 10576 10574 10572 10571 10570 10569 10566 10563 10560 10559 10557 10555 10553 10551 10549 10547 10546 10545 10544 10543 10542 10541 10539 10537 10536 10534 10534 10533 10533 10533 10532 10531 10530 10530 10528 10526 10524 10522 10521 10519 10518
10577 10577 10578 10579 10579 10579 10579 10579 10579 10579 10580 10580 10580 10579 10577 10577 10576 10575 10574 10574 10573 10572 10571 10569 10567 10566 10565 10564 10562 10559 10556 10554 10552 10549 10547 10545 10543 10542 10540 10539 10537 10536 10535 10533 10531 10528 10527 10526 10526 10526 10526 10526 10525 10524 10524 10523 10521 10519 10517 10516 10515 10513 10511
10569 10570 10571 10572 10572 10573 10573 10573 10573 10573 10573 10573 10573 10573 10572 10571 10571 10570 10569 10568 10567 10567 10566 10564 10562 10561 10560 10558 10557 10555 10553 10550 10547 10544 10541 10539 10537 10536 10534 10533 10531 10528 10526 10524 10522 10520 10519 10518 10518 10519 10519 10519 10518 10518 10517 10516 10514 10512 10511 10511 10509 10507 10506